Regional Weather Roundup
Issued by NWS

Home | Current Version | Previous Version | Text Only | Print | Product List | Glossary On
Versions: 1 2 3 4 5 6 7 8 9 10 11 12 13 14 15 16 17 18 19 20 21 22 23 24 25 26 27 28 29 30 31 32 33 34 35 36 37 38 39 40 41 42 43 44 45 46 47 48 49 50
330
ASUS43 KMPX 201701
RWRMN
WEATHER ROUNDUP FOR MINNESOTA
NATIONAL WEATHER SERVICE TWIN CITIES/CHANHASSEN MN
1200 PM CDT SUN AUG 20 2017


NOTE: "FAIR" INDICATES FEW OR NO CLOUDS BELOW 12,000 FEET WITH NO
SIGNIFICANT WEATHER AND/OR OBSTRUCTIONS TO VISIBILITY. N/A MEANS
CURRENT SKY AND/OR WEATHER CONDITIONS ARE NOT AVAILABLE.

MNZ060>063-068>070-201800-
   Twin Cities Metro

CITY           SKY/WX    TMP DP  RH WIND       PRES   REMARKS
TWIN CITIES    MOSUNNY   82  67  60 W9        29.94R
ST PAUL        MOSUNNY   80  68  66 SW8       29.93R
CRYSTAL        PTSUNNY   79  65  62 VRB6      29.93R
BLAINE         PTSUNNY   82  68  61 W9        29.93R
LAKEVILLE      SUNNY     79  68  69 SW3       29.94S
EDEN PRAIRIE   SUNNY     81  69  67 SW8       29.93R
SOUTH ST PAUL  SUNNY     81  66  61 W8        29.93R
LAKE ELMO      FAIR      79  68  69 SW10      29.94R
$$
MNZ001>005-007-008-013>017-022>024-027-028-201800-
   Northwest Minnesota

CITY           SKY/WX    TMP DP  RH WIND       PRES   REMARKS
BEMIDJI        CLOUDY    70  55  60 NW12      29.96S
HALLOCK        SUNNY     75  46  35 NW13G18   29.96R
ROSEAU         SUNNY     73  55  53 NW12      29.93R
WARROAD        SUNNY     72  54  53 NW12G18   29.93R
CROOKSTON      CLOUDY    72  48  43 NW13      29.98S
FOSSTON        CLOUDY    70  54  56 NW8       29.98R
DETROIT LAKES  CLOUDY    66  55  68 N8        29.99S
MOORHEAD       CLOUDY    68  54  60 N10       29.99R
PARK RAPIDS    CLOUDY    70  55  59 N13       29.96R
MAHNOMEN       FAIR      69  57  67 NW8       29.97S
$$
MNZ006-009>011-018-025>026-201800-
   North Central Minnesota

CITY           SKY/WX    TMP DP  RH WIND       PRES   REMARKS
BAUDETTE       CLOUDY    74  53  48 NW16      29.91R
FLAG ISLAND    HAZE      72  50  46 NW9       29.89R VSB 3/4
INTL FALLS     MOSUNNY   72  57  59 NW15G22   29.88R
WASKISH        PTSUNNY   73  55  53 NW10      29.93R
BIG FORK       MOSUNNY   72  55  56 W6        29.91R
LONGVILLE      CLOUDY    70  57  64 W8        29.94R
GRAND RAPIDS   CLOUDY    70  60  70 NW10      29.93R
CRANE LAKE     CLOUDY    70  63  78 W5        29.87R
ORR            CLOUDY    72  61  68 NW9       29.86R
COOK           CLOUDY    70  63  78 W8        29.89R
WALKER         FAIR      68  56  65 W7        29.95R
$$
MNZ012-019>021-037-201800-
   Northeast Minnesota

CITY           SKY/WX    TMP DP  RH WIND       PRES   REMARKS
DULUTH         CLOUDY    71  65  81 W15       29.90R
ELY            CLOUDY    70  63  78 W9        29.87R
HIBBING        PTSUNNY   71  63  75 NW9       29.90R
EVELETH        MOSUNNY   73  62  69 NW8       29.90R
DULUTH HARBOR  CLOUDY    73  68  83 SW8       29.88S
GRAND MARAIS     N/A     67  64  90 SW5       29.83S
$$
MNZ029>031-032-039>041-046>048-054>057-064-201800-
   West Central Minnesota

CITY           SKY/WX    TMP DP  RH WIND       PRES   REMARKS
FERGUS FALLS   CLOUDY    66  55  68 N10       29.96F
WHEATON        CLOUDY    66  52  59 N5        30.01R
MORRIS         CLOUDY    66  57  72 NW5       30.00R
ALEXANDRIA     CLOUDY    67  60  78 N7        29.98S
ELBOW LAKE     FAIR      64  58  78 N6        29.98R
WADENA         CLOUDY    66  55  68 NW7       29.96S
GLENWOOD       CLOUDY    72  61  68 CALM      29.99R
APPLETON       CLOUDY    68  57  68 NW5       29.99R
BENSON         CLOUDY    70  61  73 N7        29.99S
ORTONVILLE     PTSUNNY   64  54  68 MISG      29.98F
MADISON        CLOUDY    72  61  68 NW9       30.01R
WILLMAR        FAIR      73  66  78 N6        29.98S
$$
MNZ033>034-036-042>043-049>051-058-059-201800-
   Central Minnesota

CITY           SKY/WX    TMP DP  RH WIND       PRES   REMARKS
ST CLOUD       MOSUNNY   77  66  68 N8        29.94R
SAUK CENTRE    FAIR      70  62  74 N5        29.97R
PAYNESVILLE    MOSUNNY   73  65  74 NW7       29.97R
AITKIN         CLOUDY    72  63  73 NW6       29.92R
PINE RIVER     CLOUDY    66  55  68 NW3       29.98R
BRAINERD       PTSUNNY   72  62  71 NW7       29.95R
STAPLES        CLOUDY    68  57  68 NW8       29.97R
LONG PRAIRIE   FAIR      70  61  73 W7        29.96F
LITTLE FALLS   SUNNY     73  61  64 NW6       29.96R
LITCHFIELD     SUNNY     79  70  73 NW7       29.96S
BUFFALO        SUNNY     78  67  68 W6        29.95R
MAPLE LAKE     SUNNY     78  69  74 W8        29.95S
HUTCHINSON     SUNNY     78  70  76 W7        29.97R
$$
MNZ037-044-045-052-053-201800-
   East Central Minnesota

CITY           SKY/WX    TMP DP  RH WIND       PRES   REMARKS
PRINCETON      MOSUNNY   79  70  73 NW9       29.94R
MORA           MOSUNNY   73  63  68 W7        29.95R
CAMBRIDGE      SUNNY     79  64  61 W7        29.94R
RUSH CITY      MOSUNNY   76  67  74 W5        29.93R HAZE
MOOSE LAKE     MOSUNNY   73  64  73 NW6       29.90R
HINCKLEY       CLOUDY    73  68  83 SW7       29.93R
CLOQUET        PTSUNNY   73  63  68 W8        29.91S
MCGREGOR       MOSUNNY   72  63  73 NW5       29.93R
$$
MNZ071>073-080-081-089-090-097-098-201800-
   Southwest Minnesota

CITY           SKY/WX    TMP DP  RH WIND       PRES   REMARKS
MONTEVIDEO     CLOUDY    70  63  78 N9        29.98R
GRANITE FALLS  PTSUNNY   73  64  73 NW6       29.98S
CANBY          CLOUDY    69  58  68 CALM      30.01R
MARSHALL       CLOUDY    71  64  78 N6        29.99R
REDWOOD FALLS  MOSUNNY   77  66  68 N6        29.95S
OLIVIA         MOSUNNY   73  68  83 NW5       29.96S
PIPESTONE      CLOUDY    77  64  65 NE5       30.00R
WINDOM         SUNNY     77  64  65 N3        29.98S
WORTHINGTON    SUNNY     78  66  66 VRB5      30.00R HAZE
JACKSON        SUNNY     77  64  65 CALM      29.99S
TRACY          MOSUNNY   73  67  80 N6        29.98S
SLAYTON        SUNNY     74  62  65 CALM      30.01R
$$
MNZ065>067-074>077-082>085-091>093-201800-
   South Central Minnesota

CITY           SKY/WX    TMP DP  RH WIND       PRES   REMARKS
MANKATO        SUNNY     78  68  71 SW9       29.97R
NEW ULM        SUNNY     77  66  69 W5        29.95S
ST JAMES       SUNNY     79  66  65 NW3       29.97S
FAIRMONT       SUNNY     78  66  66 SW6       29.97F
GLENCOE        MOSUNNY   78  71  79 W5        29.95R
FARIBAULT      SUNNY     79  66  65 S10       29.96S
OWATONNA       SUNNY     79  66  65 S15       29.97F
WASECA         SUNNY     77  64  65 S12G17    29.98S
ALBERT LEA     SUNNY     82  64  54 S12       29.98S
$$
MNZ078>079-086>088-094>096-201800-
   Southeast Minnesota

CITY           SKY/WX    TMP DP  RH WIND       PRES   REMARKS
ROCHESTER      SUNNY     76  67  73 SW15      30.00S
RED WING       SUNNY     81  63  54 SW9       29.93S
STANTON        SUNNY     81  66  60 SW9G17    29.94S
DODGE CENTER   SUNNY     77  64  65 SW12      29.98F
WINONA         MOSUNNY   77  64  65 SW5       29.97F
AUSTIN           N/A     79  66  65 SW9       29.99S
PRESTON        MOSUNNY   76  63  63 SW15      30.00F
$$
ABBREVIATIONS USED IN REMARKS
   TC - TEMPERATURES IN CELSIUS
  WCI - WIND CHILL INDEX
   HX - HEAT INDEX
  VSB - VISIBILITY
$$




USA.gov is the U.S. government's official web portal to all federal, state and local government web resources and services.